Year,Month,Day,Hour,Minute,Value (Times are PST for temperature in C)
2006,09,27,00,00,12.50
2006,09,27,00,01,12.50
2006,09,27,00,02,12.50
2006,09,27,00,03,12.50
2006,09,27,00,04,12.50
2006,09,27,00,05,12.50
2006,09,27,00,06,12.50
2006,09,27,00,07,12.50
2006,09,27,00,08,12.50
2006,09,27,00,09,12.50
2006,09,27,00,10,12.50
2006,09,27,00,11,12.50
2006,09,27,00,12,12.50
2006,09,27,00,13,12.50
2006,09,27,00,14,12.50
2006,09,27,00,15,12.50
2006,09,27,00,16,12.50
2006,09,27,00,17,12.50
2006,09,27,00,18,12.50
2006,09,27,00,19,12.50
2006,09,27,00,20,12.50
2006,09,27,00,21,12.40
2006,09,27,00,22,12.50
2006,09,27,00,23,12.50
2006,09,27,00,24,12.50
2006,09,27,00,25,12.50
2006,09,27,00,26,12.50
2006,09,27,00,27,12.60
2006,09,27,00,28,12.60
2006,09,27,00,29,12.60
2006,09,27,00,30,12.60
2006,09,27,00,31,12.70
2006,09,27,00,32,12.70
2006,09,27,00,33,12.70
2006,09,27,00,34,12.70
2006,09,27,00,35,12.80
2006,09,27,00,36,12.80
2006,09,27,00,37,12.80
2006,09,27,00,38,12.80
2006,09,27,00,39,12.80
2006,09,27,00,40,12.80
2006,09,27,00,41,12.80
2006,09,27,00,42,12.80
2006,09,27,00,43,12.80
2006,09,27,00,44,12.80
2006,09,27,00,45,12.80
2006,09,27,00,46,12.80
2006,09,27,00,47,12.80
2006,09,27,00,48,12.80
2006,09,27,00,49,12.80
2006,09,27,00,50,12.80
2006,09,27,00,51,12.80
2006,09,27,00,52,12.80
2006,09,27,00,53,12.80
2006,09,27,00,54,12.80
2006,09,27,00,55,12.80
2006,09,27,00,56,12.80
2006,09,27,00,57,12.80
2006,09,27,00,58,12.70
2006,09,27,00,59,12.70
2006,09,27,01,00,12.70
2006,09,27,01,01,12.60
2006,09,27,01,02,12.60
2006,09,27,01,03,12.60
2006,09,27,01,04,12.50
2006,09,27,01,05,12.50
2006,09,27,01,06,12.50
2006,09,27,01,07,12.50
2006,09,27,01,08,12.40
2006,09,27,01,09,12.40
2006,09,27,01,10,12.40
2006,09,27,01,11,12.40
2006,09,27,01,12,12.40
2006,09,27,01,13,12.30
2006,09,27,01,14,12.30
2006,09,27,01,15,12.30
2006,09,27,01,16,12.30
2006,09,27,01,17,12.30
2006,09,27,01,18,12.30
2006,09,27,01,19,12.30
2006,09,27,01,20,12.40
2006,09,27,01,21,12.40
2006,09,27,01,22,12.40
2006,09,27,01,23,12.40
2006,09,27,01,24,12.40
2006,09,27,01,25,12.40
2006,09,27,01,26,12.50
2006,09,27,01,27,12.50
2006,09,27,01,28,12.50
2006,09,27,01,29,12.50
2006,09,27,01,30,12.50
2006,09,27,01,31,12.50
2006,09,27,01,32,12.50
2006,09,27,01,33,12.50
2006,09,27,01,34,12.50
2006,09,27,01,35,12.50
2006,09,27,01,36,12.50
2006,09,27,01,37,12.40
2006,09,27,01,38,12.40
2006,09,27,01,39,12.40
2006,09,27,01,40,12.40
2006,09,27,01,41,12.40
2006,09,27,01,42,12.30
2006,09,27,01,43,12.30
2006,09,27,01,44,12.30
2006,09,27,01,45,12.30
2006,09,27,01,46,12.30
2006,09,27,01,47,12.30
2006,09,27,01,48,12.30
2006,09,27,01,49,12.30
2006,09,27,01,50,12.30
2006,09,27,01,51,12.30
2006,09,27,01,52,12.30
2006,09,27,01,53,12.30
2006,09,27,01,54,12.30
2006,09,27,01,55,12.30
2006,09,27,01,56,12.20
2006,09,27,01,57,12.20
2006,09,27,01,58,12.30
2006,09,27,01,59,12.40
2006,09,27,02,00,12.60
2006,09,27,02,01,12.70
2006,09,27,02,02,12.90
2006,09,27,02,03,13.00
2006,09,27,02,04,13.20
2006,09,27,02,05,13.30
2006,09,27,02,06,13.40
2006,09,27,02,07,13.50
2006,09,27,02,08,13.60
2006,09,27,02,09,13.70
2006,09,27,02,10,13.70
2006,09,27,02,11,13.80
2006,09,27,02,12,13.90
2006,09,27,02,13,14.00
2006,09,27,02,14,14.00
2006,09,27,02,15,14.10
2006,09,27,02,16,14.20
2006,09,27,02,17,14.20
2006,09,27,02,18,14.30
2006,09,27,02,19,14.40
2006,09,27,02,20,14.50
2006,09,27,02,21,14.50
2006,09,27,02,22,14.60
2006,09,27,02,23,14.60
2006,09,27,02,24,14.70
2006,09,27,02,25,14.80
2006,09,27,02,26,14.80
2006,09,27,02,27,14.80
2006,09,27,02,28,14.90
2006,09,27,02,29,14.90
2006,09,27,02,30,15.00
2006,09,27,02,31,15.00
2006,09,27,02,32,15.00
2006,09,27,02,33,15.10
2006,09,27,02,34,15.10
2006,09,27,02,35,15.20
2006,09,27,02,36,15.20
2006,09,27,02,37,15.20
2006,09,27,02,38,15.20
2006,09,27,02,39,15.30
2006,09,27,02,40,15.30
2006,09,27,02,41,15.30
2006,09,27,02,42,15.30
2006,09,27,02,43,15.30
2006,09,27,02,44,15.40
2006,09,27,02,45,15.40
2006,09,27,02,46,15.40
2006,09,27,02,47,15.40
2006,09,27,02,48,15.40
2006,09,27,02,49,15.40
2006,09,27,02,50,15.40
2006,09,27,02,51,15.40
2006,09,27,02,52,15.50
2006,09,27,02,53,15.50
2006,09,27,02,54,15.50
2006,09,27,02,55,15.50
2006,09,27,02,56,15.50
2006,09,27,02,57,15.50
2006,09,27,02,58,15.50
2006,09,27,02,59,15.50
2006,09,27,03,00,15.50
2006,09,27,03,01,15.50
2006,09,27,03,02,15.50
2006,09,27,03,03,15.60
2006,09,27,03,04,15.60
2006,09,27,03,05,15.60
2006,09,27,03,06,15.60
2006,09,27,03,07,15.60
2006,09,27,03,08,15.60
2006,09,27,03,09,15.60
2006,09,27,03,10,15.60
2006,09,27,03,11,15.60
2006,09,27,03,12,15.60
2006,09,27,03,13,15.60
2006,09,27,03,14,15.60
2006,09,27,03,15,15.70
2006,09,27,03,16,15.70
2006,09,27,03,17,15.70
2006,09,27,03,18,15.70
2006,09,27,03,19,15.70
2006,09,27,03,20,15.70
2006,09,27,03,21,15.70
2006,09,27,03,22,15.70
2006,09,27,03,23,15.70
2006,09,27,03,24,15.70
2006,09,27,03,25,15.70
2006,09,27,03,26,15.70
2006,09,27,03,27,15.70
2006,09,27,03,28,15.70
2006,09,27,03,29,15.70
2006,09,27,03,30,15.70
2006,09,27,03,31,15.70
2006,09,27,03,32,15.70
2006,09,27,03,33,15.70
2006,09,27,03,34,15.70
2006,09,27,03,35,15.70
2006,09,27,03,36,15.80
2006,09,27,03,37,15.80
2006,09,27,03,38,15.80
2006,09,27,03,39,15.80
2006,09,27,03,40,15.80
2006,09,27,03,41,15.80
2006,09,27,03,42,15.80
2006,09,27,03,43,15.80
2006,09,27,03,44,15.80
2006,09,27,03,45,15.80
2006,09,27,03,46,15.80
2006,09,27,03,47,15.80
2006,09,27,03,48,15.80
2006,09,27,03,49,15.70
2006,09,27,03,50,15.70
2006,09,27,03,51,15.70
2006,09,27,03,52,15.70
2006,09,27,03,53,15.70
2006,09,27,03,54,15.70
2006,09,27,03,55,15.70
2006,09,27,03,56,15.70
2006,09,27,03,57,15.70
2006,09,27,03,58,15.70
2006,09,27,03,59,15.70
2006,09,27,04,00,15.70
2006,09,27,04,01,15.70
2006,09,27,04,02,15.70
2006,09,27,04,03,15.70
2006,09,27,04,04,15.70
2006,09,27,04,05,15.70
2006,09,27,04,06,15.70
2006,09,27,04,07,15.70
2006,09,27,04,08,15.70
2006,09,27,04,09,15.70
2006,09,27,04,10,15.60
2006,09,27,04,11,15.60
2006,09,27,04,12,15.60
2006,09,27,04,13,15.60
2006,09,27,04,14,15.60
2006,09,27,04,15,15.60
2006,09,27,04,16,15.50
2006,09,27,04,17,15.50
2006,09,27,04,18,15.50
2006,09,27,04,19,15.50
2006,09,27,04,20,15.50
2006,09,27,04,21,15.50
2006,09,27,04,22,15.50
2006,09,27,04,23,15.50
2006,09,27,04,24,15.50
2006,09,27,04,25,15.50
2006,09,27,04,26,15.40
2006,09,27,04,27,15.40
2006,09,27,04,28,15.40
2006,09,27,04,29,15.40
2006,09,27,04,30,15.40
2006,09,27,04,31,15.30
2006,09,27,04,32,15.30
2006,09,27,04,33,15.30
2006,09,27,04,34,15.30
2006,09,27,04,35,15.30
2006,09,27,04,36,15.30
2006,09,27,04,37,15.30
2006,09,27,04,38,15.30
2006,09,27,04,39,15.30
2006,09,27,04,40,15.30
2006,09,27,04,41,15.30
2006,09,27,04,42,15.30
2006,09,27,04,43,15.30
2006,09,27,04,44,15.30
2006,09,27,04,45,15.30
2006,09,27,04,46,15.20
2006,09,27,04,47,15.20
2006,09,27,04,48,15.20
2006,09,27,04,49,15.20
2006,09,27,04,50,15.20
2006,09,27,04,51,15.10
2006,09,27,04,52,15.10
2006,09,27,04,53,15.10
2006,09,27,04,54,15.10
2006,09,27,04,55,15.10
2006,09,27,04,56,15.00
2006,09,27,04,57,15.00
2006,09,27,04,58,15.00
2006,09,27,04,59,15.00
2006,09,27,05,00,15.00
2006,09,27,05,01,14.90
2006,09,27,05,02,14.90
2006,09,27,05,03,14.90
2006,09,27,05,04,14.80
2006,09,27,05,05,14.80
2006,09,27,05,06,14.80
2006,09,27,05,07,14.80
2006,09,27,05,08,14.80
2006,09,27,05,09,14.80
2006,09,27,05,10,14.70
2006,09,27,05,11,14.70
2006,09,27,05,12,14.60
2006,09,27,05,13,14.60
2006,09,27,05,14,14.50
2006,09,27,05,15,14.50
2006,09,27,05,16,14.50
2006,09,27,05,17,14.40
2006,09,27,05,18,14.40
2006,09,27,05,19,14.40
2006,09,27,05,20,14.30
2006,09,27,05,21,14.30
2006,09,27,05,22,14.20
2006,09,27,05,23,14.20
2006,09,27,05,24,14.20
2006,09,27,05,25,14.20
2006,09,27,05,26,14.10
2006,09,27,05,27,14.10
2006,09,27,05,28,14.00
2006,09,27,05,29,14.00
2006,09,27,05,30,14.00
2006,09,27,05,31,13.90
2006,09,27,05,32,13.90
2006,09,27,05,33,13.90
2006,09,27,05,34,13.80
2006,09,27,05,35,13.80
2006,09,27,05,36,13.80
2006,09,27,05,37,13.80
2006,09,27,05,38,13.70
2006,09,27,05,39,13.70
2006,09,27,05,40,13.70
2006,09,27,05,41,13.70
2006,09,27,05,42,13.70
2006,09,27,05,43,13.70
2006,09,27,05,44,13.70
2006,09,27,05,45,13.60
2006,09,27,05,46,13.60
2006,09,27,05,47,13.60
2006,09,27,05,48,13.60
2006,09,27,05,49,13.60
2006,09,27,05,50,13.50
2006,09,27,05,51,13.50
2006,09,27,05,52,13.50
2006,09,27,05,53,13.50
2006,09,27,05,54,13.50
2006,09,27,05,55,13.50
2006,09,27,05,56,13.50
2006,09,27,05,57,13.50
2006,09,27,05,58,13.50
2006,09,27,05,59,13.50
2006,09,27,06,00,13.50
2006,09,27,06,01,13.50
2006,09,27,06,02,13.40
2006,09,27,06,03,13.40
2006,09,27,06,04,13.40
2006,09,27,06,05,13.40
2006,09,27,06,06,13.40
2006,09,27,06,07,13.30
2006,09,27,06,08,13.30
2006,09,27,06,09,13.30
2006,09,27,06,10,13.30
2006,09,27,06,11,13.30
2006,09,27,06,12,13.30
2006,09,27,06,13,13.30
2006,09,27,06,14,13.30
2006,09,27,06,15,13.30
2006,09,27,06,16,13.30
2006,09,27,06,17,13.30
2006,09,27,06,18,13.30
2006,09,27,06,19,13.30
2006,09,27,06,20,13.30
2006,09,27,06,21,13.30
2006,09,27,06,22,13.30
2006,09,27,06,23,13.30
2006,09,27,06,24,13.30
2006,09,27,06,25,13.30
2006,09,27,06,26,13.30
2006,09,27,06,27,13.30
2006,09,27,06,28,13.40
2006,09,27,06,29,13.40
2006,09,27,06,30,13.50
2006,09,27,06,31,13.50
2006,09,27,06,32,13.50
2006,09,27,06,33,13.60
2006,09,27,06,34,13.60
2006,09,27,06,35,13.60
2006,09,27,06,36,13.60
2006,09,27,06,37,13.60
2006,09,27,06,38,13.70
2006,09,27,06,39,13.70
2006,09,27,06,40,13.70
2006,09,27,06,41,13.70
2006,09,27,06,42,13.70
2006,09,27,06,43,13.70
2006,09,27,06,44,13.70
2006,09,27,06,45,13.80
2006,09,27,06,46,13.80
2006,09,27,06,47,13.80
2006,09,27,06,48,13.80
2006,09,27,06,49,13.80
2006,09,27,06,50,13.80
2006,09,27,06,51,13.80
2006,09,27,06,52,13.80
2006,09,27,06,53,13.90
2006,09,27,06,54,13.90
2006,09,27,06,55,13.90
2006,09,27,06,56,13.90
2006,09,27,06,57,13.80
2006,09,27,06,58,13.80
2006,09,27,06,59,13.80
2006,09,27,07,00,13.80
2006,09,27,07,01,13.80
2006,09,27,07,02,13.70
2006,09,27,07,03,13.70
2006,09,27,07,04,13.70
2006,09,27,07,05,13.70
2006,09,27,07,06,13.70
2006,09,27,07,07,13.60
2006,09,27,07,08,13.60
2006,09,27,07,09,13.60
2006,09,27,07,10,13.50
2006,09,27,07,11,13.50
2006,09,27,07,12,13.50
2006,09,27,07,13,13.40
2006,09,27,07,14,13.40
2006,09,27,07,15,13.30
2006,09,27,07,16,13.30
2006,09,27,07,17,13.30
2006,09,27,07,18,13.30
2006,09,27,07,19,13.30
2006,09,27,07,20,13.30
2006,09,27,07,21,13.20
2006,09,27,07,22,13.20
2006,09,27,07,23,13.20
2006,09,27,07,24,13.10
2006,09,27,07,25,13.10
2006,09,27,07,26,13.10
2006,09,27,07,27,13.10
2006,09,27,07,28,13.10
2006,09,27,07,29,13.00
2006,09,27,07,30,13.00
2006,09,27,07,31,13.00
2006,09,27,07,32,13.00
2006,09,27,07,33,13.00
2006,09,27,07,34,13.00
2006,09,27,07,35,12.90
2006,09,27,07,36,12.90
2006,09,27,07,37,12.90
2006,09,27,07,38,12.90
2006,09,27,07,39,12.90
2006,09,27,07,40,12.90
2006,09,27,07,41,12.90
2006,09,27,07,42,12.90
2006,09,27,07,43,12.80
2006,09,27,07,44,12.80
2006,09,27,07,45,12.80
2006,09,27,07,46,12.80
2006,09,27,07,47,12.80
2006,09,27,07,48,12.90
2006,09,27,07,49,12.90
2006,09,27,07,50,12.90
2006,09,27,07,51,12.90
2006,09,27,07,52,12.90
2006,09,27,07,53,12.90
2006,09,27,07,54,12.90
2006,09,27,07,55,13.00
2006,09,27,07,56,13.00
2006,09,27,07,57,13.00
2006,09,27,07,58,13.10
2006,09,27,07,59,13.10
2006,09,27,08,00,13.10
2006,09,27,08,01,13.10
2006,09,27,08,02,13.10
2006,09,27,08,03,13.10
2006,09,27,08,04,13.10
2006,09,27,08,05,13.10
2006,09,27,08,06,13.20
2006,09,27,08,07,13.30
2006,09,27,08,08,13.30
2006,09,27,08,09,13.30
2006,09,27,08,10,13.30
2006,09,27,08,11,13.30
2006,09,27,08,12,13.40
2006,09,27,08,13,13.40
2006,09,27,08,14,13.50
2006,09,27,08,15,13.50
2006,09,27,08,16,13.50
2006,09,27,08,17,13.50
2006,09,27,08,18,13.60
2006,09,27,08,19,13.60
2006,09,27,08,20,13.60
2006,09,27,08,21,13.60
2006,09,27,08,22,13.60
2006,09,27,08,23,13.70
2006,09,27,08,24,13.70
2006,09,27,08,25,13.70
2006,09,27,08,26,13.70
2006,09,27,08,27,13.80
2006,09,27,08,28,13.80
2006,09,27,08,29,13.90
2006,09,27,08,30,13.90
2006,09,27,08,31,14.00
2006,09,27,08,32,14.00
2006,09,27,08,33,14.00
2006,09,27,08,34,14.10
2006,09,27,08,35,14.10
2006,09,27,08,36,14.10
2006,09,27,08,37,14.20
2006,09,27,08,38,14.20
2006,09,27,08,39,14.20
2006,09,27,08,40,14.20
2006,09,27,08,41,14.20
2006,09,27,08,42,14.20
2006,09,27,08,43,14.30
2006,09,27,08,44,14.30
2006,09,27,08,45,14.40
2006,09,27,08,46,14.40
2006,09,27,08,47,14.40
2006,09,27,08,48,14.50
2006,09,27,08,49,14.50
2006,09,27,08,50,14.50
2006,09,27,08,51,14.60
2006,09,27,08,52,14.60
2006,09,27,08,53,14.60
2006,09,27,08,54,14.60
2006,09,27,08,55,14.70
2006,09,27,08,56,14.70
2006,09,27,08,57,14.70
2006,09,27,08,58,14.80
2006,09,27,08,59,14.80
2006,09,27,09,00,14.90
2006,09,27,09,01,14.90
2006,09,27,09,02,15.00
2006,09,27,09,03,15.10
2006,09,27,09,04,15.10
2006,09,27,09,05,15.10
2006,09,27,09,06,15.20
2006,09,27,09,07,15.20
2006,09,27,09,08,15.30
2006,09,27,09,09,15.30
2006,09,27,09,10,15.40
2006,09,27,09,11,15.40
2006,09,27,09,12,15.50
2006,09,27,09,13,15.50
2006,09,27,09,14,15.60
2006,09,27,09,15,15.70
2006,09,27,09,16,15.70
2006,09,27,09,17,15.80
2006,09,27,09,18,15.80
2006,09,27,09,19,15.90
2006,09,27,09,20,16.00
2006,09,27,09,21,16.10
2006,09,27,09,22,16.10
2006,09,27,09,23,16.20
2006,09,27,09,24,16.30
2006,09,27,09,25,16.30
2006,09,27,09,26,16.30
2006,09,27,09,27,16.40
2006,09,27,09,28,16.50
2006,09,27,09,29,16.60
2006,09,27,09,30,16.70
2006,09,27,09,31,16.80
2006,09,27,09,32,16.90
2006,09,27,09,33,17.10
2006,09,27,09,34,17.30
2006,09,27,09,35,17.30
2006,09,27,09,36,17.50
2006,09,27,09,37,17.60
2006,09,27,09,38,17.70
2006,09,27,09,39,17.80
2006,09,27,09,40,17.90
2006,09,27,09,41,18.00
2006,09,27,09,42,18.10
2006,09,27,09,43,18.20
2006,09,27,09,44,18.20
2006,09,27,09,45,18.20
2006,09,27,09,46,18.30
2006,09,27,09,47,18.30
2006,09,27,09,48,18.40
2006,09,27,09,49,18.40
2006,09,27,09,50,18.50
2006,09,27,09,51,18.60
2006,09,27,09,52,18.60
2006,09,27,09,53,18.70
2006,09,27,09,54,18.80
2006,09,27,09,55,18.90
2006,09,27,09,56,19.00
2006,09,27,09,57,19.10
2006,09,27,09,58,19.20
2006,09,27,09,59,19.30
2006,09,27,10,00,19.30
2006,09,27,10,01,19.40
2006,09,27,10,02,19.50
2006,09,27,10,03,19.60
2006,09,27,10,04,19.70
2006,09,27,10,05,19.70
2006,09,27,10,06,19.80
2006,09,27,10,07,19.80
2006,09,27,10,08,19.90
2006,09,27,10,09,19.90
2006,09,27,10,10,20.00
2006,09,27,10,11,20.10
2006,09,27,10,12,20.10
2006,09,27,10,13,20.10
2006,09,27,10,14,20.20
2006,09,27,10,15,20.20
2006,09,27,10,16,20.20
2006,09,27,10,17,20.20
2006,09,27,10,18,20.20
2006,09,27,10,19,20.20
2006,09,27,10,20,20.30
2006,09,27,10,21,20.30
2006,09,27,10,22,20.30
2006,09,27,10,23,20.30
2006,09,27,10,24,20.40
2006,09,27,10,25,20.40
2006,09,27,10,26,20.40
2006,09,27,10,27,20.50
2006,09,27,10,28,20.50
2006,09,27,10,29,20.60
2006,09,27,10,30,20.70
2006,09,27,10,31,20.70
2006,09,27,10,32,20.70
2006,09,27,10,33,20.70
2006,09,27,10,34,20.70
2006,09,27,10,35,20.70
2006,09,27,10,36,20.80
2006,09,27,10,37,20.80
2006,09,27,10,38,20.90
2006,09,27,10,39,20.90
2006,09,27,10,40,21.00
2006,09,27,10,41,21.00
2006,09,27,10,42,21.10
2006,09,27,10,43,21.10
2006,09,27,10,44,21.10
2006,09,27,10,45,21.10
2006,09,27,10,46,21.10
2006,09,27,10,47,21.10
2006,09,27,10,48,21.10
2006,09,27,10,49,21.10
2006,09,27,10,50,21.20
2006,09,27,10,51,21.20
2006,09,27,10,52,21.30
2006,09,27,10,53,21.30
2006,09,27,10,54,21.30
2006,09,27,10,55,21.30
2006,09,27,10,56,21.30
2006,09,27,10,57,21.30
2006,09,27,10,58,21.30
2006,09,27,10,59,21.30
2006,09,27,11,00,21.30
2006,09,27,11,01,21.40
2006,09,27,11,02,21.40
2006,09,27,11,03,21.50
2006,09,27,11,04,21.50
2006,09,27,11,05,21.60
2006,09,27,11,06,21.60
2006,09,27,11,07,21.60
2006,09,27,11,08,21.60
2006,09,27,11,09,21.60
2006,09,27,11,10,21.60
2006,09,27,11,11,21.60
2006,09,27,11,12,21.60
2006,09,27,11,13,21.50
2006,09,27,11,14,21.40
2006,09,27,11,15,21.40
2006,09,27,11,16,21.40
2006,09,27,11,17,21.30
2006,09,27,11,18,21.30
2006,09,27,11,19,21.30
2006,09,27,11,20,21.30
2006,09,27,11,21,21.30
2006,09,27,11,22,21.40
2006,09,27,11,23,21.40
2006,09,27,11,24,21.50
2006,09,27,11,25,21.60
2006,09,27,11,26,21.60
2006,09,27,11,27,21.60
2006,09,27,11,28,21.70
2006,09,27,11,29,21.80
2006,09,27,11,30,21.80
2006,09,27,11,31,21.80
2006,09,27,11,32,21.90
2006,09,27,11,33,21.90
2006,09,27,11,34,21.70
2006,09,27,11,35,21.80
2006,09,27,11,36,21.90
2006,09,27,11,37,22.00
2006,09,27,11,38,22.10
2006,09,27,11,39,22.20
2006,09,27,11,40,22.20
2006,09,27,11,41,22.30
2006,09,27,11,42,22.30
2006,09,27,11,43,22.40
2006,09,27,11,44,22.50
2006,09,27,11,45,22.50
2006,09,27,11,46,22.60
2006,09,27,11,47,22.60
2006,09,27,11,48,22.60
2006,09,27,11,49,22.60
2006,09,27,11,50,22.60
2006,09,27,11,51,22.50
2006,09,27,11,52,22.40
2006,09,27,11,53,22.40
2006,09,27,11,54,22.40
2006,09,27,11,55,22.40
2006,09,27,11,56,22.40
2006,09,27,11,57,22.50
2006,09,27,11,58,22.50
2006,09,27,11,59,22.60
2006,09,27,12,00,22.60
2006,09,27,12,01,22.60
2006,09,27,12,02,22.60
2006,09,27,12,03,22.60
2006,09,27,12,04,22.60
2006,09,27,12,05,22.70
2006,09,27,12,06,22.70
2006,09,27,12,07,22.70
2006,09,27,12,08,22.70
2006,09,27,12,09,22.70
2006,09,27,12,10,22.80
2006,09,27,12,11,22.80
2006,09,27,12,12,22.80
2006,09,27,12,13,22.80
2006,09,27,12,14,22.80
2006,09,27,12,15,22.80
2006,09,27,12,16,22.80
2006,09,27,12,17,22.80
2006,09,27,12,18,22.70
2006,09,27,12,19,22.70
2006,09,27,12,20,22.80
2006,09,27,12,21,22.70
2006,09,27,12,22,22.70
2006,09,27,12,23,22.70
2006,09,27,12,24,22.70
2006,09,27,12,25,22.80
2006,09,27,12,26,22.80
2006,09,27,12,27,22.70
2006,09,27,12,28,22.70
2006,09,27,12,29,22.70
2006,09,27,12,30,22.80
2006,09,27,12,31,22.80
2006,09,27,12,32,22.80
2006,09,27,12,33,22.90
2006,09,27,12,34,23.00
2006,09,27,12,35,23.10
2006,09,27,12,36,23.20
2006,09,27,12,37,23.10
2006,09,27,12,38,23.10
2006,09,27,12,39,23.20
2006,09,27,12,40,23.20
2006,09,27,12,41,23.20
2006,09,27,12,42,23.30
2006,09,27,12,43,23.30
2006,09,27,12,44,23.30
2006,09,27,12,45,23.30
2006,09,27,12,46,23.30
2006,09,27,12,47,23.30
2006,09,27,12,48,23.20
2006,09,27,12,49,23.20
2006,09,27,12,50,23.20
2006,09,27,12,51,23.10
2006,09,27,12,52,23.10
2006,09,27,12,53,23.10
2006,09,27,12,54,23.10
2006,09,27,12,55,23.20
2006,09,27,12,56,23.20
2006,09,27,12,57,23.30
2006,09,27,12,58,23.30
2006,09,27,12,59,23.30
2006,09,27,13,00,23.30
2006,09,27,13,01,23.40
2006,09,27,13,02,23.40
2006,09,27,13,03,23.50
2006,09,27,13,04,23.60
2006,09,27,13,05,23.50
2006,09,27,13,06,23.50
2006,09,27,13,07,23.40
2006,09,27,13,08,23.40
2006,09,27,13,09,23.40
2006,09,27,13,10,23.50
2006,09,27,13,11,23.60
2006,09,27,13,12,23.50
2006,09,27,13,13,23.50
2006,09,27,13,14,23.50
2006,09,27,13,15,23.60
2006,09,27,13,16,23.50
2006,09,27,13,17,23.50
2006,09,27,13,18,23.40
2006,09,27,13,19,23.50
2006,09,27,13,20,23.60
2006,09,27,13,21,23.70
2006,09,27,13,22,23.70
2006,09,27,13,23,23.80
2006,09,27,13,24,23.80
2006,09,27,13,25,23.80
2006,09,27,13,26,23.80
2006,09,27,13,27,23.90
2006,09,27,13,28,23.90
2006,09,27,13,29,24.00
2006,09,27,13,30,24.00
2006,09,27,13,31,24.00
2006,09,27,13,32,24.10
2006,09,27,13,33,24.10
2006,09,27,13,34,24.10
2006,09,27,13,35,24.00
2006,09,27,13,36,24.00
2006,09,27,13,37,24.10
2006,09,27,13,38,24.10
2006,09,27,13,39,24.10
2006,09,27,13,40,24.10
2006,09,27,13,41,24.10
2006,09,27,13,42,24.10
2006,09,27,13,43,24.00
2006,09,27,13,44,24.00
2006,09,27,13,45,24.10
2006,09,27,13,46,24.10
2006,09,27,13,47,24.10
2006,09,27,13,48,24.10
2006,09,27,13,49,24.10
2006,09,27,13,50,23.90
2006,09,27,13,51,23.90
2006,09,27,13,52,24.00
2006,09,27,13,53,24.00
2006,09,27,13,54,24.00
2006,09,27,13,55,24.00
2006,09,27,13,56,24.10
2006,09,27,13,57,24.10
2006,09,27,13,58,24.10
2006,09,27,13,59,24.10
2006,09,27,14,00,24.10
2006,09,27,14,01,24.20
2006,09,27,14,02,24.30
2006,09,27,14,03,24.20
2006,09,27,14,04,24.20
2006,09,27,14,05,24.10
2006,09,27,14,06,24.10
2006,09,27,14,07,24.20
2006,09,27,14,08,24.30
2006,09,27,14,09,24.30
2006,09,27,14,10,24.30
2006,09,27,14,11,24.30
2006,09,27,14,12,24.30
2006,09,27,14,13,24.30
2006,09,27,14,14,24.10
2006,09,27,14,15,24.10
2006,09,27,14,16,24.10
2006,09,27,14,17,24.20
2006,09,27,14,18,24.20
2006,09,27,14,19,24.20
2006,09,27,14,20,24.20
2006,09,27,14,21,24.20
2006,09,27,14,22,24.30
2006,09,27,14,23,24.30
2006,09,27,14,24,24.50
2006,09,27,14,25,24.50
2006,09,27,14,26,24.60
2006,09,27,14,27,24.50
2006,09,27,14,28,24.40
2006,09,27,14,29,24.30
2006,09,27,14,30,24.30
2006,09,27,14,31,24.30
2006,09,27,14,32,24.40
2006,09,27,14,33,24.40
2006,09,27,14,34,24.40
2006,09,27,14,35,24.50
2006,09,27,14,36,24.50
2006,09,27,14,37,24.50
2006,09,27,14,38,24.60
2006,09,27,14,39,24.60
2006,09,27,14,40,24.70
2006,09,27,14,41,24.60
2006,09,27,14,42,24.60
2006,09,27,14,43,24.50
2006,09,27,14,44,24.50
2006,09,27,14,45,24.50
2006,09,27,14,46,24.60
2006,09,27,14,47,24.60
2006,09,27,14,48,24.60
2006,09,27,14,49,24.60
2006,09,27,14,50,24.60
2006,09,27,14,51,24.60
2006,09,27,14,52,24.60
2006,09,27,14,53,24.60
2006,09,27,14,54,24.70
2006,09,27,14,55,24.70
2006,09,27,14,56,24.70
2006,09,27,14,57,24.70
2006,09,27,14,58,24.40
2006,09,27,14,59,24.40
2006,09,27,15,00,24.30
2006,09,27,15,01,24.30
2006,09,27,15,02,24.20
2006,09,27,15,03,24.30
2006,09,27,15,04,24.30
2006,09,27,15,05,24.30
2006,09,27,15,06,24.30
2006,09,27,15,07,24.30
2006,09,27,15,08,24.30
2006,09,27,15,09,24.30
2006,09,27,15,10,24.20
2006,09,27,15,11,24.20
2006,09,27,15,12,24.20
2006,09,27,15,13,24.10
2006,09,27,15,14,24.10
2006,09,27,15,15,24.10
2006,09,27,15,16,24.10
2006,09,27,15,17,24.10
2006,09,27,15,18,24.10
2006,09,27,15,19,24.10
2006,09,27,15,20,24.20
2006,09,27,15,21,24.10
2006,09,27,15,22,24.10
2006,09,27,15,23,24.10
2006,09,27,15,24,24.10
2006,09,27,15,25,24.10
2006,09,27,15,26,24.10
2006,09,27,15,27,24.10
2006,09,27,15,28,24.10
2006,09,27,15,29,24.10
2006,09,27,15,30,24.10
2006,09,27,15,31,24.10
2006,09,27,15,32,24.10
2006,09,27,15,33,23.90
2006,09,27,15,34,23.90
2006,09,27,15,35,23.90
2006,09,27,15,36,23.90
2006,09,27,15,37,23.80
2006,09,27,15,38,23.80
2006,09,27,15,39,23.70
2006,09,27,15,40,23.70
2006,09,27,15,41,23.70
2006,09,27,15,42,23.70
2006,09,27,15,43,23.80
2006,09,27,15,44,23.80
2006,09,27,15,45,23.80
2006,09,27,15,46,23.80
2006,09,27,15,47,23.70
2006,09,27,15,48,23.70
2006,09,27,15,49,23.70
2006,09,27,15,50,23.70
2006,09,27,15,51,23.70
2006,09,27,15,52,23.70
2006,09,27,15,53,23.70
2006,09,27,15,54,23.70
2006,09,27,15,55,23.70
2006,09,27,15,56,23.70
2006,09,27,15,57,23.70
2006,09,27,15,58,23.70
2006,09,27,15,59,23.70
2006,09,27,16,00,23.70
2006,09,27,16,01,23.70
2006,09,27,16,02,23.70
2006,09,27,16,03,23.70
2006,09,27,16,04,23.70
2006,09,27,16,05,23.70
2006,09,27,16,06,23.70
2006,09,27,16,07,23.70
2006,09,27,16,08,23.60
2006,09,27,16,09,23.60
2006,09,27,16,10,23.60
2006,09,27,16,11,23.50
2006,09,27,16,12,23.40
2006,09,27,16,13,23.40
2006,09,27,16,14,23.40
2006,09,27,16,15,23.30
2006,09,27,16,16,23.30
2006,09,27,16,17,23.30
2006,09,27,16,18,23.30
2006,09,27,16,19,23.30
2006,09,27,16,20,23.30
2006,09,27,16,21,23.30
2006,09,27,16,22,23.20
2006,09,27,16,23,23.20
2006,09,27,16,24,23.20
2006,09,27,16,25,23.10
2006,09,27,16,26,23.10
2006,09,27,16,27,23.00
2006,09,27,16,28,22.90
2006,09,27,16,29,22.90
2006,09,27,16,30,22.90
2006,09,27,16,31,22.90
2006,09,27,16,32,22.90
2006,09,27,16,33,22.90
2006,09,27,16,34,22.80
2006,09,27,16,35,22.80
2006,09,27,16,36,22.80
2006,09,27,16,37,22.70
2006,09,27,16,38,22.70
2006,09,27,16,39,22.70
2006,09,27,16,40,22.70
2006,09,27,16,41,22.60
2006,09,27,16,42,22.60
2006,09,27,16,43,22.60
2006,09,27,16,44,22.60
2006,09,27,16,45,22.50
2006,09,27,16,46,22.50
2006,09,27,16,47,22.50
2006,09,27,16,48,22.50
2006,09,27,16,49,22.40
2006,09,27,16,50,22.40
2006,09,27,16,51,22.40
2006,09,27,16,52,22.40
2006,09,27,16,53,22.40
2006,09,27,16,54,22.40
2006,09,27,16,55,22.40
2006,09,27,16,56,22.40
2006,09,27,16,57,22.30
2006,09,27,16,58,22.30
2006,09,27,16,59,22.30
2006,09,27,17,00,22.30
2006,09,27,17,01,22.30
2006,09,27,17,02,22.30
2006,09,27,17,03,22.30
2006,09,27,17,04,22.20
2006,09,27,17,05,22.20
2006,09,27,17,06,22.20
2006,09,27,17,07,22.10
2006,09,27,17,08,22.10
2006,09,27,17,09,22.10
2006,09,27,17,10,22.10
2006,09,27,17,11,22.10
2006,09,27,17,12,22.10
2006,09,27,17,13,22.00
2006,09,27,17,14,22.00
2006,09,27,17,15,22.00
2006,09,27,17,16,22.00
2006,09,27,17,17,22.00
2006,09,27,17,18,22.00
2006,09,27,17,19,22.00